Location: Bogis-Bossey
(46.3500°N, 6.1667°E)
Time: 17:38:03
(UTC+00:00)

Cosmos 2082 Rocket - Pass Details

Date: 17 August 2022
Orbit: 834 x 852 km, 71.0° (Epoch: 30 September)

Event Time Altitude Azimuth Distance (km) Brightness Sun altitude
Rises 19:48:21 0° 341° (NNW) 3,394 6.2 -11.1°
Reaches altitude 10° 19:52:28 10° 10° (N) 2,455 4.9 -11.7°
Maximum altitude 19:54:50 13° 35° (NE) 2,273 4.4 -12.1°
Drops below altitude 10° 19:57:11 10° 60° (ENE) 2,451 4.4 -12.4°
Enters shadow 19:59:18 - 78° (ENE) 2,867 4.6 -12.7°
